Radiation Dose at Monitoring Post of Fukushima Daini Nuclear Power Station
Date,Time,MP-1(microSv/h),MP-2(microSv/h),MP-3(microSv/h),MP-4(microSv/h),MP-5(microSv/h),MP-6(microSv/h),MP-7(microSv/h),Wind Direction,Wind Velocity(m/s),Rain
2017/12/17,00:00,0.340,0.207,0.347,0.324,0.314,0.174,0.104,west-northwest,14.4,No
2017/12/17,00:10,0.341,0.208,0.346,0.324,0.315,0.175,0.103,west-northwest,10.7,No
2017/12/17,00:20,0.340,0.208,0.348,0.323,0.315,0.174,0.104,west-northwest,13.6,No
2017/12/17,00:30,0.341,0.207,0.348,0.324,0.315,0.175,0.103,west,14.2,No
2017/12/17,00:40,0.341,0.208,0.346,0.324,0.316,0.173,0.104,west,14.7,No
2017/12/17,00:50,0.341,0.208,0.348,0.323,0.315,0.174,0.103,west,14.8,No
2017/12/17,01:00,0.339,0.208,0.348,0.324,0.317,0.174,0.103,west-northwest,13.9,No
2017/12/17,01:10,0.343,0.207,0.348,0.323,0.316,0.175,0.104,west-northwest,12.6,No
2017/12/17,01:20,0.342,0.208,0.347,0.324,0.315,0.174,0.104,west-northwest,13.9,No
2017/12/17,01:30,0.340,0.208,0.349,0.322,0.314,0.174,0.103,west-northwest,11.1,No
2017/12/17,01:40,0.340,0.209,0.348,0.324,0.315,0.175,0.104,west-northwest,11.5,No
2017/12/17,01:50,0.342,0.208,0.348,0.323,0.316,0.174,0.103,west-northwest,10.1,No
2017/12/17,02:00,0.341,0.208,0.348,0.324,0.315,0.173,0.102,west,12.6,No
2017/12/17,02:10,0.340,0.208,0.349,0.324,0.315,0.175,0.104,west-northwest,17.1,No
2017/12/17,02:20,0.340,0.207,0.348,0.326,0.317,0.175,0.102,west-northwest,15.3,No
2017/12/17,02:30,0.340,0.207,0.346,0.324,0.316,0.174,0.103,west-northwest,15.5,No
2017/12/17,02:40,0.341,0.209,0.348,0.324,0.314,0.174,0.102,west-northwest,17.2,No
2017/12/17,02:50,0.341,0.207,0.349,0.323,0.313,0.175,0.103,west,15.5,No
2017/12/17,03:00,0.341,0.208,0.348,0.323,0.316,0.174,0.103,west-northwest,14.8,No
2017/12/17,03:10,0.340,0.207,0.349,0.323,0.316,0.174,0.103,west,13.7,No
2017/12/17,03:20,0.341,0.209,0.349,0.325,0.317,0.173,0.103,west,16.8,No
2017/12/17,03:30,0.342,0.208,0.349,0.324,0.316,0.173,0.103,west,16.1,No
2017/12/17,03:40,0.341,0.208,0.347,0.323,0.316,0.175,0.103,west-northwest,14.0,No
2017/12/17,03:50,0.341,0.206,0.348,0.324,0.316,0.174,0.104,west,17.2,No
2017/12/17,04:00,0.340,0.208,0.350,0.324,0.317,0.174,0.103,west-northwest,12.9,No
2017/12/17,04:10,0.341,0.207,0.350,0.323,0.317,0.173,0.104,west-northwest,13.9,No
2017/12/17,04:20,0.341,0.209,0.349,0.324,0.316,0.175,0.103,west-northwest,14.7,No
2017/12/17,04:30,0.341,0.207,0.349,0.323,0.317,0.175,0.104,west-northwest,14.4,No
2017/12/17,04:40,0.342,0.208,0.349,0.325,0.317,0.174,0.104,west-northwest,12.3,No
2017/12/17,04:50,0.341,0.208,0.348,0.323,0.317,0.174,0.104,north-northwest,10.9,No
2017/12/17,05:00,0.341,0.208,0.350,0.323,0.316,0.174,0.103,north-northwest,9.5,No
2017/12/17,05:10,0.343,0.209,0.349,0.326,0.317,0.174,0.103,northwest,6.2,No
2017/12/17,05:20,0.342,0.210,0.350,0.325,0.318,0.173,0.104,north,7.3,No
2017/12/17,05:30,0.342,0.210,0.349,0.322,0.316,0.174,0.104,north,10.9,No
2017/12/17,05:40,0.341,0.210,0.348,0.325,0.317,0.175,0.103,north,6.6,No
2017/12/17,05:50,0.343,0.209,0.350,0.325,0.317,0.174,0.103,north-northwest,4.3,No
2017/12/17,06:00,0.343,0.209,0.351,0.325,0.318,0.175,0.104,north,7.3,No
2017/12/17,06:10,0.342,0.210,0.349,0.325,0.316,0.174,0.104,north-northeast,5.2,No
2017/12/17,06:20,0.341,0.209,0.348,0.325,0.317,0.174,0.105,north-northeast,5.6,No
2017/12/17,06:30,0.342,0.209,0.350,0.325,0.317,0.174,0.104,north-northeast,7.9,No
2017/12/17,06:40,0.343,0.208,0.348,0.324,0.316,0.174,0.104,north,8.8,No
2017/12/17,06:50,0.342,0.209,0.350,0.325,0.316,0.174,0.103,north-northwest,7.6,No
2017/12/17,07:00,0.343,0.210,0.347,0.325,0.315,0.175,0.104,north-northwest,10.1,No
2017/12/17,07:10,0.341,0.209,0.349,0.325,0.316,0.174,0.104,north-northwest,11.8,No
2017/12/17,07:20,0.342,0.209,0.348,0.323,0.316,0.174,0.104,north,10.7,No
2017/12/17,07:30,0.341,0.208,0.350,0.326,0.315,0.174,0.103,north-northwest,8.7,No
2017/12/17,07:40,0.343,0.210,0.348,0.324,0.315,0.174,0.104,north,6.7,No
2017/12/17,07:50,0.344,0.208,0.348,0.324,0.315,0.175,0.104,north-northwest,6.0,No
2017/12/17,08:00,0.342,0.210,0.349,0.325,0.314,0.174,0.103,northwest,7.4,No
2017/12/17,08:10,0.341,0.209,0.348,0.324,0.315,0.175,0.103,northwest,10.1,No
2017/12/17,08:20,0.342,0.210,0.349,0.325,0.315,0.174,0.103,northwest,12.2,No
2017/12/17,08:30,0.341,0.208,0.348,0.323,0.315,0.174,0.104,northwest,10.3,No
2017/12/17,08:40,0.342,0.209,0.347,0.324,0.317,0.175,0.103,northwest,8.7,No
2017/12/17,08:50,0.342,0.210,0.349,0.326,0.316,0.174,0.103,north-northwest,8.1,No
2017/12/17,09:00,0.341,0.209,0.349,0.323,0.316,0.174,0.105,northwest,6.5,No
2017/12/17,09:10,0.342,0.209,0.350,0.323,0.314,0.174,0.103,northwest,7.9,No
2017/12/17,09:20,0.342,0.209,0.348,0.325,0.315,0.174,0.103,northwest,10.3,No
2017/12/17,09:30,0.342,0.209,0.349,0.323,0.316,0.174,0.103,northwest,8.3,No
2017/12/17,09:40,0.342,0.209,0.348,0.324,0.316,0.174,0.104,northwest,7.0,No
2017/12/17,09:50,0.342,0.208,0.349,0.325,0.316,0.175,0.103,northwest,6.4,No
2017/12/17,10:00,0.343,0.209,0.348,0.324,0.317,0.174,0.104,northwest,6.0,No
2017/12/17,10:10,0.341,0.208,0.349,0.322,0.314,0.174,0.104,northwest,5.3,No
2017/12/17,10:20,0.341,0.209,0.349,0.324,0.316,0.174,0.104,north-northwest,8.4,No
2017/12/17,10:30,0.340,0.209,0.348,0.323,0.317,0.174,0.103,north-northwest,6.8,No
2017/12/17,10:40,0.342,0.207,0.347,0.323,0.314,0.174,0.103,northwest,6.2,No
2017/12/17,10:50,0.341,0.208,0.347,0.324,0.315,0.174,0.104,west-northwest,4.1,No
2017/12/17,11:00,0.341,0.209,0.349,0.322,0.314,0.174,0.104,north-northwest,5.1,No
2017/12/17,11:10,0.342,0.208,0.348,0.325,0.315,0.175,0.105,northwest,4.5,No
2017/12/17,11:20,0.340,0.208,0.349,0.324,0.316,0.175,0.104,northwest,2.8,No
2017/12/17,11:30,0.342,0.209,0.350,0.324,0.317,0.174,0.104,north,2.2,No
2017/12/17,11:40,0.341,0.209,0.346,0.326,0.315,0.174,0.103,north,5.7,No
2017/12/17,11:50,0.341,0.207,0.349,0.325,0.316,0.174,0.104,north,6.7,No
2017/12/17,12:00,0.340,0.208,0.348,0.323,0.316,0.174,0.103,north,7.9,No
2017/12/17,12:10,0.341,0.208,0.348,0.324,0.314,0.174,0.104,north,7.8,No
2017/12/17,12:20,0.342,0.208,0.348,0.324,0.315,0.175,0.104,north,6.2,No
2017/12/17,12:30,0.342,0.208,0.349,0.323,0.316,0.175,0.103,north-northwest,5.7,No
2017/12/17,12:40,0.340,0.207,0.349,0.324,0.315,0.174,0.103,north,9.0,No
2017/12/17,12:50,0.340,0.208,0.348,0.325,0.314,0.174,0.104,north,6.3,No
2017/12/17,13:00,0.342,0.209,0.349,0.323,0.317,0.175,0.104,north,7.3,No
2017/12/17,13:10,0.343,0.209,0.348,0.323,0.315,0.175,0.103,north-northeast,7.5,No
2017/12/17,13:20,0.342,0.208,0.348,0.325,0.316,0.175,0.104,north,6.8,Yes
2017/12/17,13:30,0.343,0.210,0.349,0.324,0.315,0.174,0.104,north-northeast,7.6,Yes
2017/12/17,13:40,0.342,0.210,0.349,0.324,0.316,0.176,0.104,north,6.5,No
2017/12/17,13:50,0.343,0.210,0.348,0.324,0.316,0.175,0.105,north,7.0,Yes
2017/12/17,14:00,0.341,0.209,0.348,0.324,0.316,0.175,0.105,north,5.3,Yes
2017/12/17,14:10,0.341,0.210,0.348,0.325,0.315,0.175,0.104,north,3.4,No
2017/12/17,14:20,0.342,0.210,0.349,0.324,0.317,0.176,0.104,north,4.3,No
2017/12/17,14:30,0.342,0.208,0.347,0.324,0.315,0.176,0.104,north,4.2,No
2017/12/17,14:40,0.343,0.208,0.348,0.326,0.315,0.174,0.104,north-northeast,4.5,No
2017/12/17,14:50,0.341,0.209,0.348,0.324,0.315,0.174,0.104,north-northeast,4.9,No
2017/12/17,15:00,0.341,0.209,0.347,0.323,0.316,0.174,0.104,northeast,4.6,No
2017/12/17,15:10,0.342,0.210,0.348,0.323,0.315,0.174,0.104,north-northeast,3.8,No
2017/12/17,15:20,0.341,0.208,0.347,0.324,0.313,0.174,0.102,north,4.3,No
2017/12/17,15:30,0.341,0.208,0.348,0.324,0.315,0.174,0.104,north-northeast,3.0,No
2017/12/17,15:40,0.341,0.208,0.348,0.323,0.315,0.174,0.103,north,2.4,No
2017/12/17,15:50,0.342,0.208,0.348,0.324,0.313,0.173,0.104,north,3.7,No
2017/12/17,16:00,0.343,0.208,0.348,0.324,0.314,0.174,0.103,north-northeast,2.3,No
2017/12/17,16:10,0.341,0.208,0.346,0.324,0.315,0.174,0.104,north,1.9,No
2017/12/17,16:20,0.340,0.209,0.348,0.323,0.314,0.174,0.104,west,1.0,No
2017/12/17,16:30,0.340,0.208,0.348,0.323,0.314,0.174,0.103,west,2.0,No
2017/12/17,16:40,0.341,0.207,0.348,0.324,0.315,0.173,0.103,north-northwest,1.6,No
2017/12/17,16:50,0.340,0.209,0.346,0.325,0.314,0.173,0.103,northwest,1.9,No
2017/12/17,17:00,0.341,0.209,0.347,0.323,0.315,0.173,0.103,west-northwest,1.6,No
2017/12/17,17:10,0.339,0.207,0.346,0.325,0.312,0.174,0.103,-,CALM,No
2017/12/17,17:20,0.340,0.207,0.347,0.323,0.313,0.173,0.103,-,CALM,No
2017/12/17,17:30,0.342,0.207,0.348,0.324,0.313,0.174,0.103,southwest,1.1,No
2017/12/17,17:40,0.340,0.206,0.347,0.323,0.314,0.174,0.103,-,CALM,No
2017/12/17,17:50,0.341,0.208,0.347,0.324,0.314,0.174,0.103,west-southwest,1.5,No
2017/12/17,18:00,0.340,0.208,0.346,0.324,0.314,0.173,0.103,southwest,1.0,No
2017/12/17,18:10,0.339,0.207,0.347,0.325,0.312,0.174,0.104,-,CALM,No
2017/12/17,18:20,0.341,0.208,0.347,0.324,0.314,0.172,0.103,north-northeast,1.1,No
2017/12/17,18:30,0.341,0.208,0.347,0.325,0.313,0.174,0.103,north-northwest,1.8,No
2017/12/17,18:40,0.341,0.208,0.347,0.324,0.313,0.173,0.103,north-northwest,2.6,No
2017/12/17,18:50,0.341,0.208,0.346,0.323,0.314,0.173,0.103,northwest,2.9,No
2017/12/17,19:00,0.341,0.206,0.348,0.323,0.314,0.173,0.103,west-northwest,2.6,No
2017/12/17,19:10,0.341,0.209,0.348,0.323,0.314,0.172,0.103,west-northwest,3.4,No
2017/12/17,19:20,0.340,0.208,0.347,0.324,0.313,0.173,0.103,northwest,2.9,No
2017/12/17,19:30,0.341,0.207,0.347,0.323,0.313,0.174,0.103,west-northwest,2.9,No
2017/12/17,19:40,0.340,0.208,0.347,0.325,0.312,0.174,0.103,north-northwest,1.5,No
2017/12/17,19:50,0.341,0.208,0.347,0.324,0.312,0.174,0.104,-,CALM,No
2017/12/17,20:00,0.340,0.207,0.348,0.324,0.314,0.174,0.104,southeast,0.6,No
2017/12/17,20:10,0.340,0.207,0.347,0.323,0.313,0.173,0.103,-,CALM,No
2017/12/17,20:20,0.339,0.207,0.346,0.323,0.314,0.173,0.103,northeast,0.9,No
2017/12/17,20:30,0.340,0.207,0.347,0.324,0.313,0.174,0.103,north-northeast,0.9,No
2017/12/17,20:40,0.340,0.208,0.346,0.324,0.313,0.174,0.103,-,CALM,No
2017/12/17,20:50,0.342,0.208,0.347,0.324,0.313,0.173,0.103,-,CALM,No
2017/12/17,21:00,0.341,0.207,0.346,0.323,0.314,0.173,0.104,-,CALM,No
2017/12/17,21:10,0.340,0.208,0.347,0.325,0.313,0.172,0.103,west,1.2,No
2017/12/17,21:20,0.341,0.208,0.347,0.324,0.313,0.173,0.103,west-southwest,1.2,No
2017/12/17,21:30,0.340,0.208,0.348,0.323,0.313,0.174,0.104,west-northwest,0.9,No
2017/12/17,21:40,0.340,0.207,0.348,0.324,0.312,0.173,0.103,-,CALM,No
2017/12/17,21:50,0.342,0.208,0.346,0.324,0.314,0.173,0.103,southwest,1.7,No
2017/12/17,22:00,0.341,0.208,0.346,0.324,0.314,0.174,0.103,west-southwest,2.3,No
2017/12/17,22:10,0.342,0.207,0.347,0.324,0.314,0.173,0.104,west-southwest,3.2,No
2017/12/17,22:20,0.341,0.207,0.348,0.324,0.313,0.173,0.103,southwest,3.0,No
2017/12/17,22:30,0.340,0.207,0.348,0.324,0.312,0.173,0.103,west-southwest,2.7,No
2017/12/17,22:40,0.340,0.207,0.347,0.324,0.313,0.173,0.103,southwest,5.7,No
2017/12/17,22:50,0.341,0.209,0.346,0.324,0.314,0.173,0.104,southwest,5.7,No
2017/12/17,23:00,0.341,0.208,0.348,0.323,0.314,0.173,0.103,southwest,4.8,No
2017/12/17,23:10,0.340,0.209,0.347,0.325,0.313,0.173,0.104,southwest,5.2,No
2017/12/17,23:20,0.343,0.208,0.347,0.323,0.315,0.173,0.103,southwest,5.5,No
2017/12/17,23:30,0.341,0.208,0.348,0.323,0.312,0.174,0.103,southwest,3.9,No
2017/12/17,23:40,0.340,0.207,0.347,0.324,0.313,0.173,0.103,southwest,4.5,No
2017/12/17,23:50,0.340,0.208,0.347,0.324,0.312,0.173,0.103,southwest,5.9,No
